Temp
-15 -15 -15 -15 -15 -15 -15 -15 -15 -15 -15 -15 -16 -16 -16 -17 -17 -17 -17 -17 -16 -16 -16 -16 -16 -16 -17 -17 -17 -18 -18 -18 -18 -19 -19 -20 -21 -21 -22 -23 -26 -27 -27 -26
-15 -15 -15 -14 -15 -15 -15 -15 -15 -15 -16 -16 -16 -16 -17 -17 -17 -17 -17 -17 -16 -16 -16 -16 -16 -16 -16 -17 -17 -18 -18 -18 -18 -19 -19 -20 -20 -21 -21 -22 -24 -26 -27 -27
-15 -15 -15 -14 -15 -15 -15 -15 -15 -16 -16 -16 -16 -16 -17 -17 -17 -17 -17 -17 -16 -16 -16 -16 -16 -16 -16 -17 -17 -18 -18 -18 -18 -19 -19 -20 -20 -21 -21 -22 -23 -25 -26 -26
-15 -15 -14 -15 -15 -15 -15 -15 -15 -16 -16 -16 -16 -16 -17 -17 -17 -17 -17 -17 -17 -16 -16 -16 -16 -16 -16 -17 -17 -18 -18 -18 -18 -19 -19 -20 -20 -21 -21 -22 -22 -23 -25 -26
-15 -15 -15 -15 -15 -15 -15 -15 -15 -16 -16 -16 -16 -16 -17 -17 -17 -17 -17 -17 -17 -16 -17 -17 -17 -16 -16 -17 -18 -18 -18 -18 -19 -19 -19 -19 -20 -20 -21 -21 -22 -22 -24 -25
-15 -15 -15 -15 -15 -15 -15 -15 -16 -16 -16 -16 -16 -17 -17 -17 -17 -17 -17 -17 -17 -17 -17 -17 -17 -17 -16 -17 -18 -18 -18 -19 -19 -19 -19 -19 -19 -20 -20 -21 -21 -22 -23 -24
-15 -15 -15 -15 -15 -15 -15 -15 -16 -16 -16 -16 -16 -17 -17 -17 -17 -17 -17 -17 -17 -17 -17 -17 -17 -17 -17 -17 -18 -18 -18 -19 -19 -19 -19 -19 -19 -19 -19 -20 -21 -22 -22 -23
-15 -15 -15 -14 -15 -15 -15 -16 -16 -16 -16 -17 -17 -17 -17 -17 -17 -17 -18 -18 -17 -17 -17 -17 -17 -17 -17 -17 -18 -18 -19 -19 -19 -19 -20 -20 -20 -20 -20 -20 -20 -21 -22 -22
-15 -15 -15 -14 -15 -15 -16 -16 -16 -16 -16 -17 -17 -17 -17 -17 -17 -18 -18 -18 -17 -17 -17 -17 -17 -17 -17 -17 -18 -19 -19 -19 -19 -20 -20 -20 -20 -20 -20 -20 -20 -21 -21 -22
-15 -15 -14 -14 -15 -15 -16 -16 -16 -16 -16 -16 -17 -17 -17 -17 -17 -18 -18 -18 -18 -17 -17 -17 -17 -17 -17 -18 -19 -19 -19 -19 -20 -20 -20 -20 -20 -20 -21 -21 -21 -21 -21 -22
-15 -14 -14 -15 -15 -15 -15 -16 -16 -16 -16 -16 -17 -17 -17 -17 -18 -18 -18 -18 -18 -17 -17 -17 -17 -18 -18 -19 -19 -19 -19 -20 -20 -20 -20 -20 -21 -21 -21 -21 -21 -21 -21 -22
-14 -14 -14 -15 -15 -15 -15 -15 -15 -16 -16 -16 -17 -17 -17 -17 -18 -18 -18 -18 -18 -18 -18 -18 -19 -19 -19 -19 -19 -20 -19 -20 -20 -20 -20 -21 -21 -21 -21 -21 -21 -21 -21 -21
-14 -14 -14 -14 -14 -15 -15 -15 -15 -16 -16 -16 -17 -17 -17 -17 -18 -18 -18 -18 -18 -18 -18 -19 -19 -19 -19 -19 -19 -19 -20 -20 -20 -20 -21 -21 -21 -21 -21 -21 -21 -21 -21 -21
-14 -14 -14 -14 -14 -14 -14 -15 -15 -15 -16 -16 -17 -17 -17 -17 -17 -17 -17 -18 -18 -18 -18 -18 -18 -18 -19 -19 -19 -19 -20 -20 -20 -21 -21 -21 -21 -21 -21 -21 -21 -22 -21 -21
-14 -14 -14 -14 -14 -14 -14 -14 -15 -15 -16 -16 -16 -17 -17 -17 -17 -17 -17 -18 -18 -18 -18 -18 -18 -19 -19 -19 -19 -20 -20 -20 -21 -21 -21 -21 -21 -21 -21 -21 -21 -22 -22 -22
-14 -14 -14 -14 -14 -14 -14 -14 -15 -16 -16 -16 -17 -17 -17 -17 -18 -17 -18 -18 -18 -18 -18 -18 -18 -19 -19 -19 -19 -20 -20 -20 -21 -21 -21 -21 -21 -21 -21 -21 -21 -22 -22 -22
-14 -14 -14 -14 -14 -14 -14 -14 -15 -16 -17 -17 -16 -16 -17 -17 -17 -17 -18 -18 -18 -18 -18 -18 -18 -19 -19 -19 -20 -20 -20 -20 -20 -21 -21 -21 -22 -21 -22 -22 -22 -22 -22 -22
-14 -14 -14 -14 -14 -14 -14 -14 -15 -16 -16 -16 -16 -17 -17 -17 -17 -18 -18 -18 -18 -18 -18 -18 -19 -19 -19 -19 -19 -20 -20 -20 -20 -21 -21 -21 -21 -22 -22 -22 -22 -22 -22 -22
-14 -14 -14 -14 -14 -14 -14 -14 -15 -15 -16 -16 -16 -16 -17 -17 -17 -18 -18 -18 -18 -18 -18 -18 -19 -19 -19 -19 -19 -20 -20 -20 -21 -21 -21 -21 -21 -21 -22 -22 -22 -22 -22 -22
-14 -14 -14 -14 -14 -14 -14 -14 -15 -15 -16 -16 -16 -16 -17 -17 -17 -18 -18 -18 -18 -18 -18 -19 -18 -19 -19 -19 -19 -19 -20 -20 -20 -21 -21 -21 -21 -21 -22 -22 -22 -22 -22 -23
-14 -14 -14 -14 -14 -14 -14 -14 -15 -15 -15 -15 -16 -16 -17 -17 -17 -18 -18 -18 -18 -18 -18 -18 -18 -18 -19 -19 -19 -19 -19 -20 -20 -20 -20 -21 -21 -21 -22 -22 -22 -22 -23 -23
-14 -14 -14 -14 -14 -14 -14 -14 -14 -15 -15 -15 -15 -16 -16 -17 -17 -17 -17 -18 -18 -18 -18 -18 -18 -18 -18 -19 -19 -19 -19 -19 -19 -20 -21 -21 -21 -22 -22 -22 -22 -23 -23 -23
-14 -14 -14 -14 -14 -14 -14 -14 -14 -14 -15 -15 -15 -16 -16 -16 -16 -17 -17 -17 -18 -18 -18 -18 -18 -18 -18 -19 -19 -19 -19 -20 -20 -20 -21 -21 -21 -21 -22 -22 -22 -23 -23 -23
-15 -14 -14 -14 -14 -14 -14 -14 -14 -14 -15 -15 -15 -16 -16 -16 -16 -17 -17 -17 -17 -18 -18 -18 -18 -18 -18 -19 -19 -19 -20 -20 -20 -20 -21 -21 -21 -21 -22 -22 -22 -22 -23 -23
-15 -14 -14 -14 -14 -14 -14 -14 -14 -14 -15 -15 -15 -15 -15 -16 -16 -16 -16 -17 -17 -18 -18 -18 -18 -19 -19 -19 -19 -20 -20 -20 -21 -21 -21 -21 -21 -21 -22 -22 -22 -22 -22 -23
-15 -14 -14 -14 -15 -14 -14 -14 -14 -14 -15 -15 -15 -16 -16 -16 -16 -17 -17 -17 -17 -18 -18 -18 -18 -19 -19 -19 -20 -20 -20 -20 -21 -21 -21 -21 -21 -22 -22 -22 -22 -22 -22 -23
-15 -15 -15 -15 -15 -15 -15 -15 -15 -15 -15 -15 -15 -16 -16 -16 -16 -17 -17 -17 -18 -18 -18 -18 -18 -19 -19 -19 -20 -20 -20 -20 -21 -21 -21 -21 -22 -22 -22 -22 -22 -22 -22 -23
Height
5755 5758 5760 5762 5763 5764 5765 5765 5767 5768 5766 5767 5767 5765 5762 5761 5759 5755 5752 5749 5745 5742 5738 5733 5727 5720 5713 5704 5694 5683 5672 5660 5647 5632 5618 5603 5587 5571 5554 5537 5525 5519 5516 5514
5750 5754 5756 5758 5759 5759 5761 5763 5763 5763 5764 5763 5763 5760 5759 5758 5756 5751 5750 5746 5743 5740 5735 5731 5725 5719 5711 5702 5693 5683 5672 5661 5648 5634 5621 5607 5592 5577 5561 5545 5531 5523 5519 5517
5748 5751 5752 5755 5755 5756 5757 5758 5759 5759 5760 5760 5758 5757 5756 5754 5751 5749 5747 5743 5740 5737 5733 5729 5724 5717 5709 5701 5692 5683 5673 5662 5650 5637 5624 5611 5597 5583 5568 5553 5539 5529 5523 5520
5744 5746 5749 5750 5751 5753 5754 5754 5754 5755 5756 5756 5754 5753 5752 5750 5748 5746 5744 5741 5738 5734 5731 5726 5722 5716 5708 5700 5691 5683 5674 5663 5651 5639 5627 5614 5602 5589 5576 5562 5548 5536 5528 5523
5740 5742 5746 5746 5747 5749 5751 5750 5751 5751 5752 5752 5750 5750 5749 5747 5745 5744 5741 5738 5735 5732 5728 5724 5720 5714 5707 5699 5691 5683 5674 5664 5653 5642 5630 5618 5606 5595 5583 5571 5557 5545 5534 5527
5736 5739 5742 5743 5744 5746 5747 5747 5747 5747 5748 5747 5747 5747 5745 5743 5743 5741 5739 5735 5732 5730 5726 5722 5718 5712 5705 5698 5691 5683 5675 5665 5655 5645 5634 5622 5611 5600 5589 5578 5567 5555 5543 5532
5732 5736 5738 5740 5741 5742 5743 5747 5743 5743 5744 5744 5744 5743 5742 5741 5740 5739 5736 5733 5730 5727 5724 5720 5716 5710 5703 5696 5690 5683 5675 5666 5657 5647 5637 5627 5616 5604 5594 5583 5574 5563 5552 5541
5729 5732 5735 5737 5738 5739 5740 5739 5739 5740 5740 5741 5740 5740 5739 5738 5738 5736 5733 5730 5727 5724 5721 5718 5713 5707 5701 5695 5688 5682 5675 5666 5658 5649 5639 5630 5620 5609 5598 5588 5579 5570 5560 5551
5727 5729 5730 5733 5735 5735 5735 5735 5736 5736 5736 5737 5737 5737 5737 5736 5735 5733 5730 5727 5724 5722 5718 5714 5709 5704 5699 5692 5686 5681 5674 5667 5659 5650 5642 5632 5622 5613 5603 5593 5584 5575 5567 5558
5722 5724 5727 5731 5732 5731 5731 5732 5732 5732 5733 5733 5734 5734 5734 5733 5732 5730 5728 5724 5722 5719 5715 5711 5707 5702 5697 5691 5685 5680 5674 5667 5660 5652 5643 5634 5625 5616 5607 5598 5590 5582 5573 5565
5717 5720 5725 5727 5728 5728 5728 5728 5727 5728 5729 5730 5731 5731 5731 5730 5729 5727 5725 5722 5720 5717 5713 5709 5704 5700 5695 5690 5684 5679 5673 5667 5660 5653 5645 5636 5627 5619 5611 5603 5594 5587 5579 5571
5712 5718 5721 5724 5724 5725 5725 5724 5724 5725 5726 5726 5727 5728 5727 5727 5726 5724 5722 5719 5717 5714 5710 5706 5702 5697 5692 5688 5683 5678 5672 5666 5660 5653 5646 5637 5629 5621 5613 5605 5598 5590 5583 5576
5709 5715 5719 5719 5721 5722 5722 5722 5722 5722 5723 5723 5723 5724 5724 5723 5723 5721 5720 5717 5714 5711 5707 5702 5698 5694 5690 5686 5682 5677 5671 5665 5659 5653 5645 5638 5630 5622 5615 5607 5600 5593 5586 5579
5708 5713 5716 5717 5719 5718 5719 5719 5719 5719 5719 5720 5720 5720 5720 5720 5719 5718 5717 5715 5712 5709 5704 5700 5696 5692 5688 5684 5679 5674 5668 5663 5657 5651 5644 5637 5630 5623 5615 5608 5602 5594 5588 5581
5704 5708 5712 5714 5715 5715 5716 5716 5716 5716 5716 5716 5717 5717 5716 5715 5714 5713 5712 5711 5709 5705 5701 5697 5693 5688 5684 5680 5676 5671 5666 5660 5655 5649 5643 5636 5629 5623 5616 5609 5603 5596 5589 5583
5700 5706 5708 5710 5712 5712 5713 5713 5712 5712 5712 5712 5712 5712 5712 5711 5710 5709 5708 5707 5705 5701 5698 5694 5689 5685 5681 5677 5672 5668 5663 5658 5653 5647 5641 5634 5628 5622 5615 5609 5603 5596 5590 5583
5697 5701 5704 5707 5709 5709 5710 5710 5708 5707 5707 5708 5708 5708 5707 5706 5706 5705 5705 5704 5701 5697 5694 5690 5686 5682 5677 5673 5669 5665 5660 5655 5650 5644 5638 5633 5627 5620 5614 5608 5602 5595 5589 5583
5693 5697 5700 5702 5704 5706 5707 5706 5705 5704 5703 5703 5703 5703 5702 5701 5702 5702 5701 5699 5696 5693 5690 5686 5682 5678 5674 5670 5666 5661 5657 5652 5647 5641 5636 5630 5625 5619 5613 5607 5600 5594 5588 5583
5688 5692 5696 5698 5700 5702 5703 5703 5702 5701 5700 5699 5698 5698 5698 5697 5697 5697 5696 5694 5692 5689 5686 5682 5678 5674 5670 5666 5662 5658 5653 5648 5643 5638 5633 5627 5622 5616 5610 5604 5598 5592 5587 5581
5683 5688 5691 5694 5696 5698 5699 5699 5698 5697 5696 5695 5694 5694 5693 5693 5693 5693 5691 5689 5687 5684 5681 5678 5674 5670 5666 5662 5659 5654 5650 5645 5640 5635 5629 5624 5618 5613 5607 5602 5597 5591 5585 5579
5678 5682 5686 5690 5692 5694 5695 5695 5694 5694 5693 5692 5691 5690 5690 5690 5689 5688 5687 5685 5682 5679 5676 5673 5670 5666 5662 5658 5654 5650 5645 5641 5636 5631 5626 5620 5615 5609 5604 5599 5593 5588 5582 5576
5673 5677 5681 5684 5687 5689 5690 5690 5690 5690 5690 5689 5688 5687 5687 5686 5685 5684 5682 5680 5678 5675 5673 5670 5667 5663 5659 5655 5651 5646 5642 5637 5632 5627 5622 5617 5611 5606 5601 5595 5590 5584 5578 5572
5667 5672 5676 5680 5683 5684 5685 5686 5686 5686 5686 5685 5684 5683 5683 5682 5681 5679 5678 5676 5674 5671 5669 5666 5663 5660 5656 5652 5648 5643 5639 5634 5629 5623 5618 5613 5608 5602 5597 5591 5585 5579 5573 5567
5662 5667 5671 5675 5678 5679 5680 5681 5681 5681 5682 5681 5680 5680 5679 5678 5677 5675 5674 5672 5669 5667 5665 5662 5659 5656 5652 5648 5643 5639 5634 5629 5624 5620 5614 5609 5603 5597 5592 5586 5580 5574 5568 5562
5657 5662 5666 5670 5672 5673 5675 5676 5677 5678 5678 5677 5676 5676 5675 5674 5673 5671 5669 5666 5664 5662 5659 5657 5653 5650 5646 5642 5637 5633 5628 5623 5619 5614 5609 5604 5598 5592 5586 5581 5575 5569 5562 5556
5651 5656 5660 5664 5666 5667 5669 5671 5672 5673 5672 5672 5672 5671 5670 5669 5668 5665 5663 5662 5659 5657 5654 5651 5648 5644 5640 5636 5632 5627 5623 5618 5613 5608 5603 5598 5592 5586 5581 5575 5568 5562 5556 5549
5646 5651 5655 5658 5659 5661 5664 5665 5666 5667 5667 5667 5667 5666 5665 5663 5661 5659 5657 5655 5653 5650 5647 5644 5640 5636 5632 5629 5625 5621 5616 5611 5606 5601 5595 5590 5585 5579 5573 5568 5562 5556 5549 5543
Wind_Speed
20 22 18 15 15 13 9 12 10 13 13 11 8 8 10 12 13 16 18 18 16 18 21 26 31 35 37 40 44 47 51 55 59 60 60 62 64 67 70 60 38 16 13 13
21 20 16 15 14 11 11 11 11 12 12 10 7 9 10 12 13 15 18 16 15 17 20 25 30 33 37 39 42 46 50 53 57 60 59 60 62 64 67 65 49 26 12 12
17 17 13 12 14 12 12 13 13 10 12 9 7 9 10 11 13 16 17 16 15 17 20 25 29 32 36 38 41 44 48 52 55 58 59 59 59 61 63 65 59 40 18 12
15 15 12 13 13 11 10 10 10 13 10 7 8 9 9 11 14 16 16 14 15 17 21 24 27 31 35 37 39 42 45 49 53 56 57 57 58 58 59 62 62 53 33 13
18 14 12 15 13 11 10 11 11 12 8 7 9 9 9 11 14 16 15 15 15 18 21 24 26 30 33 35 37 39 43 47 50 53 55 57 56 56 56 56 59 58 48 28
16 14 14 13 12 12 11 12 11 10 7 7 8 8 8 12 15 16 15 15 16 18 21 24 25 28 32 34 35 37 40 44 47 50 53 55 55 55 55 54 54 56 55 45
18 14 14 13 13 13 11 12 10 9 7 8 8 7 10 13 15 16 16 16 17 19 21 24 25 27 30 32 33 35 38 41 45 48 50 51 53 53 53 54 53 52 53 52
18 16 16 14 14 14 12 9 7 5 7 8 7 8 11 13 15 16 15 16 18 19 21 23 24 26 28 30 32 33 36 38 42 46 49 50 51 52 51 52 52 51 50 51
19 17 14 15 16 13 10 8 6 6 8 8 7 9 11 14 15 15 15 17 19 20 20 22 23 25 26 28 30 32 34 36 40 44 47 48 49 50 50 49 50 50 49 49
19 17 15 12 10 8 6 4 4 6 8 8 8 9 12 14 15 16 15 17 19 19 20 21 22 23 25 26 28 31 34 36 39 42 45 47 47 48 49 48 47 47 47 46
21 16 12 10 10 7 6 6 7 8 8 9 9 10 12 14 16 16 14 16 18 19 20 21 22 23 24 27 29 31 33 36 39 41 43 45 45 46 47 47 45 45 45 44
22 13 12 11 10 6 4 8 8 10 11 10 10 11 13 15 16 17 15 15 16 18 20 22 23 24 24 27 29 31 33 35 38 40 41 43 44 44 44 45 44 43 43 43
22 15 12 12 9 7 7 8 9 8 10 12 11 11 13 15 17 18 16 16 18 21 22 23 24 26 28 28 30 32 34 35 37 39 40 40 41 42 42 42 42 41 41 42
21 16 16 12 9 7 7 11 11 9 10 13 14 14 12 14 15 18 19 19 23 25 25 26 25 26 27 28 30 32 33 35 37 38 38 38 39 40 40 40 41 40 39 40
23 20 16 10 10 6 8 12 13 12 12 15 16 15 15 14 15 16 16 18 22 24 25 26 26 27 27 28 30 32 33 34 35 36 36 36 37 39 39 39 38 38 38 37
24 19 16 15 8 6 9 13 15 12 11 11 13 16 17 15 16 17 16 16 20 23 26 27 27 27 28 28 29 30 31 32 34 34 34 35 35 37 38 38 38 37 36 36
24 22 19 13 9 7 10 13 16 13 10 11 12 13 15 16 16 17 17 16 19 23 27 29 27 27 28 28 29 30 30 31 32 32 33 34 34 36 37 36 36 35 35 35
26 24 18 16 10 9 11 14 15 13 11 10 11 13 16 18 15 15 15 17 20 24 26 27 25 26 27 28 28 28 29 29 30 31 32 33 34 34 34 35 35 35 36 36
28 24 21 16 12 10 12 14 13 11 11 13 13 14 14 15 14 13 15 18 21 24 24 24 25 25 26 26 25 26 27 28 30 30 31 31 32 33 33 34 36 36 36 35
28 24 20 16 11 11 12 13 12 10 12 12 10 8 9 10 12 13 16 19 20 21 22 23 23 22 22 22 23 24 26 28 29 29 30 30 31 32 34 35 35 36 37 38
27 27 22 16 13 12 11 12 12 10 9 7 5 4 6 8 11 15 17 19 19 21 20 20 20 20 20 20 22 23 25 27 29 29 30 31 31 33 34 35 36 36 37 39
30 28 22 18 16 13 11 12 11 9 8 8 5 6 7 10 13 16 18 18 18 20 21 21 22 22 22 22 23 26 28 29 30 31 32 34 34 34 34 35 37 38 39 40
30 27 23 20 19 14 12 11 9 7 7 7 6 8 11 13 15 17 19 19 21 21 21 22 24 25 25 26 27 29 31 32 33 34 34 35 35 35 36 36 38 39 40 40
30 29 25 23 20 16 14 12 10 9 9 6 7 11 13 15 16 18 19 20 21 22 24 26 26 27 27 27 30 32 34 35 36 36 37 37 37 37 38 38 38 39 40 41
30 28 27 25 20 17 16 15 13 12 10 9 10 12 15 16 17 18 19 21 21 22 23 24 26 26 27 29 32 34 35 37 38 39 39 39 39 39 39 39 39 39 40 42
29 29 29 24 21 17 17 16 15 15 12 11 11 12 13 15 17 19 20 22 23 23 24 26 28 30 31 33 35 37 38 39 40 39 39 39 39 40 41 41 41 41 42 44
28 28 28 24 21 18 18 18 17 15 13 12 14 16 15 16 17 19 20 22 23 24 26 27 29 32 33 35 37 38 39 40 39 39 38 38 40 41 42 43 44 44 46 48
Wind_Direction
237 241 241 251 260 259 249 243 259 258 273 282 288 291 300 312 327 332 336 333 339 343 346 344 350 353 354 356 358 1 2 4 5 6 5 5 7 10 12 17 23 33 35 32
238 241 247 256 260 247 248 250 250 264 265 286 282 291 302 319 323 333 333 330 338 341 345 340 350 352 355 356 358 1 2 5 7 8 7 7 9 11 13 17 23 28 40 36
240 241 247 250 244 243 247 251 253 260 261 272 282 291 300 317 328 331 328 332 336 340 339 341 348 351 355 357 358 1 2 6 8 10 9 8 11 13 15 17 21 26 31 41
231 236 240 235 244 247 251 257 255 251 271 262 276 292 304 323 324 326 326 329 334 338 336 342 348 351 354 357 357 360 1 5 9 10 11 10 11 14 17 18 20 24 27 33
226 232 233 239 247 246 255 258 259 253 265 256 272 289 307 319 323 320 326 331 334 334 337 341 347 350 354 356 356 358 359 3 8 9 11 12 12 13 17 20 21 22 26 26
223 225 228 239 244 248 253 263 256 256 253 251 270 284 309 318 319 317 325 333 332 334 339 341 347 350 353 354 354 356 358 2 5 9 10 12 13 13 15 19 23 23 24 27
222 223 227 237 252 257 257 259 266 264 253 247 263 291 306 315 317 317 330 336 332 335 339 342 348 350 352 353 351 353 356 360 3 7 10 11 13 14 15 17 21 24 25 26
218 216 220 239 253 257 263 269 274 261 243 247 267 294 304 311 314 319 334 338 335 338 339 343 348 350 352 350 348 351 355 357 1 5 7 9 11 13 15 16 17 21 24 26
214 218 216 237 251 263 274 270 269 254 243 246 267 292 301 308 311 321 339 346 343 343 342 343 348 351 351 347 345 348 353 356 360 2 5 7 9 11 15 16 16 17 21 24
214 213 213 232 253 263 253 244 258 265 254 252 263 285 298 304 310 321 343 355 353 349 344 345 347 347 346 343 343 348 352 355 359 0 3 5 8 9 13 15 16 17 18 21
215 206 207 224 245 232 254 274 280 273 258 249 259 283 292 300 308 318 340 355 354 355 354 350 345 341 337 337 341 347 352 354 356 357 0 3 6 8 10 14 15 16 17 19
214 194 199 220 246 260 311 347 325 288 259 245 253 278 288 297 305 315 335 345 350 351 347 344 338 331 330 333 339 346 350 352 353 354 358 1 3 8 9 12 14 15 17 18
214 192 204 234 248 277 291 307 308 301 270 253 249 269 290 297 306 314 326 331 333 334 340 340 341 336 334 334 338 343 345 348 350 352 356 360 2 6 7 10 12 14 17 17
212 198 211 236 264 267 286 297 294 288 263 253 255 265 279 293 305 314 327 333 338 347 345 343 344 342 339 337 336 337 341 346 349 351 354 357 1 4 6 7 10 13 15 16
209 204 213 229 243 282 303 304 304 294 280 268 267 269 278 290 294 303 320 331 338 341 343 343 343 342 340 337 335 335 339 345 347 349 353 356 359 2 4 5 8 10 12 13
204 201 209 214 227 267 300 312 318 305 290 287 278 275 281 287 291 303 311 325 331 335 338 341 342 341 341 339 337 338 341 343 346 348 351 354 357 359 2 3 5 7 9 10
200 202 208 216 233 269 296 310 322 319 293 278 282 297 286 285 289 301 311 319 321 327 333 337 340 340 339 339 340 342 342 344 346 348 349 352 355 359 359 2 4 5 5 5
203 202 206 220 232 269 295 311 318 319 307 291 287 290 289 293 300 307 314 313 318 325 330 336 336 336 337 340 343 345 345 345 345 346 349 351 354 355 356 358 0 2 2 1
202 204 213 217 226 261 287 306 310 310 305 303 301 299 303 301 306 308 310 312 320 325 329 331 330 335 339 341 344 344 344 344 344 345 347 349 351 352 353 355 356 357 358 357
201 207 217 221 226 257 281 298 305 307 302 301 304 305 301 302 304 306 308 313 322 320 324 324 330 334 337 339 342 344 344 344 344 344 345 345 346 347 348 349 351 352 352 353
202 212 219 218 229 251 273 290 296 300 305 298 302 328 316 301 301 305 310 314 318 314 320 320 324 329 333 334 337 341 341 343 343 341 340 340 342 344 344 346 346 348 348 350
205 213 216 218 231 246 263 279 285 285 290 288 300 317 316 310 310 312 312 314 314 318 319 320 324 328 328 330 334 337 338 339 339 337 336 337 340 342 342 342 344 345 346 347
207 212 215 220 232 240 255 267 263 269 267 269 295 306 310 312 315 316 317 317 318 320 320 322 325 327 328 329 329 331 332 332 333 334 334 336 338 340 340 341 342 343 344 344
208 211 217 218 230 235 246 249 238 246 253 276 303 309 310 314 316 317 318 318 320 321 321 323 324 327 328 326 325 326 327 328 330 331 333 335 336 337 338 341 341 341 340 340
208 211 214 219 227 234 238 243 238 246 264 288 307 313 311 311 312 315 317 317 319 320 319 319 319 319 320 319 320 322 324 325 328 331 333 334 334 335 336 338 337 337 338 337
207 210 212 222 224 232 235 242 243 251 269 289 305 314 318 315 313 314 313 313 313 313 313 315 314 314 315 317 319 321 323 325 328 329 330 331 331 331 331 333 334 334 334 334
211 210 215 223 226 230 234 240 245 259 272 283 296 305 312 315 314 314 313 312 310 311 310 308 309 310 312 315 318 320 321 324 326 327 327 327 328 328 329 331 331 332 332 331